Météo Nord-Pas-de-Calais   La météo au plus près de chez vous

Station météorologique

Observations météo à Batz (29082)

29082001 32 m Dernier relevé à 06:12
15.3°C
Vent 18.4 km/h

Journée consultée

Mercredi 2 Septembre 2026

Synthèse de la journée

Périodes de référence en UTC

Température maximale

21.3°C

à 16:00

06h 06h

Température minimale

15.2°C

à 06:06

18h 18h

Rafale maximale

26 km/h

à 05:30

00h 00h

Précipitations

0 mm

Cumul quotidien

06h 06h

Graphiques de la journée

Heure locale Réduire

Données détaillées

Relevés météo

Pas de 6 minutes Afficher les relevés infra-horaires
Relevés météo détaillés à Batz pour le Mercredi 2 Septembre 2026
Heure Température °C Vent moyen (raf.), km/h Précipitations mm
06:12 15.3 °C 17 km/h (23 km/h) 0 mm0 mm
06:06 15.2 °C 16 km/h (22 km/h) 0 mm0 mm
06:00 15.3 °C 18 km/h (24 km/h) 0 mm0 mm
05:54 15.4 °C 18 km/h (23 km/h) 0 mm0 mm
05:48 15.4 °C 19 km/h (26 km/h) 0 mm0 mm
05:42 15.5 °C 21 km/h (26 km/h) 0 mm0 mm
05:36 15.5 °C 21 km/h (26 km/h) 0 mm0 mm
05:30 15.5 °C 19 km/h (26 km/h) 0 mm0 mm
05:24 15.5 °C 19 km/h (25 km/h) 0 mm0 mm
05:18 15.6 °C 19 km/h (24 km/h) 0 mm0 mm
05:12 15.6 °C 18 km/h (23 km/h) 0 mm0 mm
05:06 15.6 °C 17 km/h (22 km/h) 0 mm0 mm
05:00 15.7 °C 18 km/h (24 km/h) 0 mm0 mm
04:54 15.8 °C 19 km/h (24 km/h) 0 mm0 mm
04:48 15.7 °C 18 km/h (24 km/h) 0 mm0 mm
04:42 15.8 °C 17 km/h (22 km/h) 0 mm0 mm
04:36 15.8 °C 17 km/h (23 km/h) 0 mm0 mm
04:30 15.8 °C 15 km/h (23 km/h) 0 mm0 mm
04:24 15.7 °C 14 km/h (21 km/h) 0 mm0 mm
04:18 15.7 °C 14 km/h (23 km/h) 0 mm0 mm
04:12 15.7 °C 13 km/h (23 km/h) 0 mm0 mm
04:06 15.6 °C 13 km/h (20 km/h) 0 mm0 mm
04:00 15.6 °C 13 km/h (19 km/h) 0 mm0 mm
03:54 15.5 °C 12 km/h (19 km/h) 0 mm0 mm
03:48 15.5 °C 12 km/h (17 km/h) 0 mm0 mm
03:42 15.6 °C 12 km/h (17 km/h) 0 mm0 mm
03:36 15.5 °C 12 km/h (15 km/h) 0 mm0 mm
03:30 15.5 °C 10 km/h (14 km/h) 0 mm0 mm
03:24 15.6 °C 10 km/h (13 km/h) 0 mm0 mm
03:18 15.6 °C 10 km/h (13 km/h) 0 mm0 mm
03:12 15.7 °C 9 km/h (14 km/h) 0 mm0 mm
03:06 15.7 °C 9 km/h (14 km/h) 0 mm0 mm
03:00 15.8 °C 10 km/h (14 km/h) 0 mm0 mm
02:54 15.8 °C 12 km/h (17 km/h) 0 mm0 mm
02:48 15.9 °C 11 km/h (17 km/h) 0 mm0 mm
02:42 15.9 °C 9 km/h (15 km/h) 0 mm0 mm
02:36 15.9 °C 10 km/h (14 km/h) 0 mm0 mm
02:30 15.9 °C 9 km/h (15 km/h) 0 mm0 mm
02:24 15.9 °C 10 km/h (15 km/h) 0 mm0 mm
02:18 16 °C 10 km/h (15 km/h) 0 mm0 mm
02:12 16 °C 12 km/h (15 km/h) 0 mm0 mm
02:06 16.1 °C 12 km/h (19 km/h) 0 mm0 mm
02:00 16.1 °C 12 km/h (17 km/h) 0 mm0 mm
01:54 16.1 °C 13 km/h (18 km/h) 0 mm0 mm
01:48 16 °C 13 km/h (17 km/h) 0 mm0 mm
01:42 16 °C 12 km/h (18 km/h) 0 mm0 mm
01:36 16 °C 12 km/h (18 km/h) 0 mm0 mm
01:30 16.1 °C 12 km/h (16 km/h) 0 mm0 mm
01:24 16.1 °C 12 km/h (18 km/h) 0 mm0 mm
01:18 16.1 °C 13 km/h (18 km/h) 0 mm0 mm
01:12 16.1 °C 14 km/h (18 km/h) 0 mm0 mm
01:06 16.1 °C 14 km/h (18 km/h) 0 mm0 mm
01:00 16.2 °C 13 km/h (18 km/h) 0 mm0 mm
00:54 16.2 °C 13 km/h (15 km/h) 0 mm0 mm
00:48 16.2 °C 13 km/h (17 km/h) 0 mm0 mm
00:42 16.2 °C 14 km/h (17 km/h) 0 mm0 mm
00:36 16.2 °C 14 km/h (18 km/h) 0 mm0 mm
00:30 16.3 °C 14 km/h (17 km/h) 0 mm0 mm
00:24 16.3 °C 13 km/h (17 km/h) 0 mm0 mm
00:18 16.3 °C 12 km/h (17 km/h) 0 mm0 mm
00:12 16.4 °C 12 km/h (17 km/h) 0 mm0 mm
00:06 16.5 °C 13 km/h (16 km/h) 0 mm0 mm
00:00 16.4 °C 13 km/h (17 km/h) 0 mm0 mm

Données via Météo-France

Relevés météo à Batz

Cette page rassemble les observations de la station de Batz : température, humidité, vent, précipitations et pression atmosphérique. Les graphiques facilitent le suivi de la journée, tandis que le tableau donne accès aux mesures horaires et infra-horaires disponibles.

Pour replacer ces mesures dans leur contexte, consultez la climatologie de Batz ainsi que ses normales et records. Retrouvez aussi la carte des observations météo en temps réel.